This demonstration page uses our WeatherBlox Daily Observations layout. Learn more.

Left ArrowRight Arrow

33.98154, -81.23621

Hourly Observations for August 10, 2022

Temp ( °F °C ) Dew Point ( °F °C ) Humidity (%) Winds ( mph kmh ) Pressure ( in mb ) Visibility ( mi km ) Precip ( " mm )
12:56 am 00:56 Mostly Clear 80 26.7 72 22.2 76 76 SW 8 13 30.11 1020 10 16 0.00 0.00
1:56 am 01:56 Clear 78 25.6 71 21.7 79 79 Calm 30.11 1020 10 16 0.00 0.00
2:56 am 02:56 Clear 78 25.6 72 22.2 82 82 Calm 30.11 1020 10 16 0.00 0.00
3:56 am 03:56 Clear 75 23.9 71 21.7 88 88 Calm 30.12 1020 10 16 0.00 0.00
4:56 am 04:56 Clear 74 23.3 70 21.1 87 87 VRB 5 7 30.12 1020 10 16 0.00 0.00
5:56 am 05:56 Clear 73 22.8 69 20.6 87 87 SW 3 6 30.14 1021 10 16 0.00 0.00
6:56 am 06:56 Sunny 72 22.2 69 20.6 91 91 Calm 30.15 1021 10 16 0.00 0.00
7:56 am 07:56 Partly Cloudy 73 22.8 70 21.1 90 90 Calm 30.17 1022 10 16 0.00 0.00
8:56 am 08:56 Partly Cloudy 77 25 70 21.1 79 79 WSW 8 13 30.17 1022 10 16 0.00 0.00
9:56 am 09:56 Mostly Cloudy 80 26.7 70 21.1 71 71 SW 7 11 30.17 1022 10 16 0.00 0.00
10:56 am 10:56 Mostly Cloudy 84 28.9 69 20.6 61 61 SW 13 20 30.17 1022 10 16 0.00 0.00
11:56 am 11:56 Mostly Cloudy 88 31.1 70 21.1 55 55 W 13 20 30.16 1022 10 16 0.00 0.00
12:56 pm 12:56 Mostly Cloudy 91 32.8 69 20.6 49 49 W 18 30 30.16 1021 10 16 0.00 0.00
1:56 pm 13:56 Mostly Cloudy 89 31.7 70 21.1 54 54 W 9 15 30.14 1021 10 16 0.00 0.00
2:56 pm 14:56 Mostly Cloudy 91 32.8 71 21.7 52 52 W 10 17 30.10 1019 10 16 0.00 0.00
3:56 pm 15:56 Partly Cloudy 91 32.8 71 21.7 52 52 SW 16 26 30.08 1019 10 16 0.00 0.00
4:56 pm 16:56 Partly Cloudy 90 32.2 70 21.1 52 52 SW 8 13 30.07 1018 10 16 0.00 0.00
5:56 pm 17:56 Partly Cloudy 90 32.2 70 21.1 52 52 W 12 19 30.07 1018 10 16 0.00 0.00
6:56 pm 18:56 Partly Cloudy 89 31.7 70 21.1 54 54 W 10 17 30.06 1018 10 16 0.00 0.00
7:56 pm 19:56 Mostly Cloudy 86 30 69 20.6 57 57 W 8 13 30.07 1018 10 16 0.00 0.00
8:56 pm 20:56 Partly Cloudy 83 28.3 70 21.1 65 65 W 5 7 30.08 1019 10 16 0.00 0.00
9:56 pm 21:56 Mostly Cloudy 81 27.2 71 21.7 72 72 WSW 7 11 30.11 1020 10 16 0.00 0.00
10:31 pm 22:31 Mostly Cloudy with Nearby Thunderstorms 80 26.7 70 21.1 71 71 SSW 23 37 30.16 1021 10 16 0.01 0.13
10:56 pm 22:56 Cloudy with Light Rain 74 23.3 70 21.1 87 87 SSW 18 30 30.18 1022 7 11 0.01 0.13
11:56 pm 23:56 Cloudy with Light Rain 73 22.8 72 22.2 96 96 NNE 5 7 30.09 1019 10 16 0.07 1.78

Powered by AerisWeather